Location: Franzen
(48.6167°N, 15.3833°E)
Time: 08:26:21
(UTC+00:00)

Tiros 1 despin weight - Visible Passes

Search period start: 24 July 2021 00:00
Search period end: 03 August 2021 00:00
Orbit: 593 x 641 km, 48.2° (Epoch: 23 July)

Date Brightness Start Highest point End Pass type
(mag) Time Alt. Az. Time Alt. Az. Time Alt. Az.
24 Jul ? 20:36:49 10° W 20:41:02 35° SSW 20:43:03 24° SSE visible
25 Jul ? 20:53:25 10° W 20:57:01 23° SW 20:58:17 20° SSW visible
26 Jul ? 19:27:44 10° W 19:32:10 45° SSW 19:36:32 10° SE visible
26 Jul ? 21:10:39 10° WSW 21:12:53 13° SW 21:13:35 13° SW visible
27 Jul ? 19:44:11 10° W 19:48:13 30° SSW 19:51:54 12° SSE visible
28 Jul ? 20:00:56 10° W 20:04:10 19° SW 20:07:17 10° S visible
29 Jul ? 20:19:04 10° WSW 20:19:59 11° SW 20:20:53 10° SW visible
31 Jul ? 19:08:36 10° WSW 19:11:17 15° SW 19:13:57 10° S visible
